Location: The Decker-Grebner-Van Zandt Observatory
(40.8442°N, 89.8218°W)
Time: 05:19:12
(UTC-06:00)

ISS - Visible Passes

Search period start: 07 December 2019 00:00
Search period end: 17 December 2019 00:00
Orbit: 411 x 421 km, 51.6° (Epoch: 07 December)

Date Brightness Start Highest point End Pass type
(mag) Time Alt. Az. Time Alt. Az. Time Alt. Az.
07 Dec -3.0 18:26:14 10° NW 18:28:43 46° NW 18:28:43 46° NW visible
08 Dec -3.4 17:37:49 10° NW 17:41:04 44° NNE 17:42:51 22° E visible
08 Dec -0.6 19:14:57 10° W 19:15:47 15° W 19:15:47 15° W visible
09 Dec -2.4 18:26:07 10° WNW 18:29:16 38° SW 18:30:13 31° S visible
10 Dec -3.5 17:37:30 10° WNW 17:40:51 70° SW 17:44:10 10° SE visible
11 Dec -0.6 18:26:54 10° W 18:28:42 14° SW 18:30:30 10° SSW visible
12 Dec -1.2 17:37:36 10° WNW 17:40:21 24° SW 17:43:07 10° S visible
